Time,TemperatureF,DewpointF,PressureIn,WindDirection,WindDirectionDegrees,WindSpeedMPH,WindSpeedGustMPH,Humidity,HourlyPrecipIn,Conditions,Clouds,dailyrainin,SolarRadiationWatts/m^2,SoftwareType,DateUTC
2013-09-28 00:03:00,38.7,33.3,25.29,SE,135,1.2,0.0,81,0.00,RA,,0.00,0.0,WeatherDisplay:10.37,2013-09-28 06:03:00,
2013-09-28 00:08:00,38.5,33.5,25.29,SE,135,1.2,0.0,82,0.00,RA,,0.00,0.0,WeatherDisplay:10.37,2013-09-28 06:08:00,
2013-09-28 00:13:00,38.5,33.5,25.29,South,180,1.2,0.0,82,0.00,CLR,,0.00,0.0,WeatherDisplay:10.37,2013-09-28 06:13:00,
2013-09-28 00:18:00,38.3,33.3,25.29,South,180,1.2,0.0,82,0.00,CLR,,0.00,0.0,WeatherDisplay:10.37,2013-09-28 06:18:00,
2013-09-28 00:23:00,38.3,33.3,25.28,South,180,1.2,0.0,82,0.00,CLR,,0.00,0.0,WeatherDisplay:10.37,2013-09-28 06:23:00,
2013-09-28 00:28:00,38.3,33.3,25.28,South,180,2.3,0.0,82,0.00,CLR,,0.00,0.0,WeatherDisplay:10.37,2013-09-28 06:28:00,
2013-09-28 00:33:00,38.5,33.5,25.28,South,180,2.3,0.0,82,0.00,CLR,,0.00,0.0,WeatherDisplay:10.37,2013-09-28 06:33:00,
2013-09-28 00:38:00,38.5,33.5,25.28,South,180,2.3,0.0,82,0.00,CLR,,0.00,0.0,WeatherDisplay:10.37,2013-09-28 06:38:00,
2013-09-28 00:43:00,38.7,33.6,25.28,South,180,2.3,2.3,82,0.00,CLR,,0.00,0.0,WeatherDisplay:10.37,2013-09-28 06:43:00,
2013-09-28 00:48:00,38.7,33.6,25.28,South,180,3.5,3.5,82,0.00,CLR,,0.00,0.0,WeatherDisplay:10.37,2013-09-28 06:48:00,
2013-09-28 00:53:00,38.8,33.2,25.27,South,180,1.2,0.0,80,0.00,CLR,,0.00,0.0,WeatherDisplay:10.37,2013-09-28 06:53:00,
2013-09-28 00:58:00,39.4,33.4,25.28,SW,225,1.2,1.2,79,0.00,CLR,,0.00,0.0,WeatherDisplay:10.37,2013-09-28 06:58:00,
2013-09-28 01:03:00,39.6,33.6,25.28,NE,45,1.2,0.0,79,0.00,CLR,,0.00,0.0,WeatherDisplay:10.37,2013-09-28 07:03:00,
2013-09-28 01:08:00,40.5,33.5,25.28,South,180,2.3,0.0,76,0.00,CLR,,0.00,0.0,WeatherDisplay:10.37,2013-09-28 07:08:00,
2013-09-28 01:13:00,41.0,33.7,25.28,East,90,3.5,3.5,75,0.00,CLR,,0.00,0.0,WeatherDisplay:10.37,2013-09-28 07:13:00,
2013-09-28 01:18:00,41.2,33.5,25.28,South,180,2.3,0.0,74,0.00,CLR,,0.00,0.0,WeatherDisplay:10.37,2013-09-28 07:18:00,
2013-09-28 01:23:00,41.5,33.2,25.28,South,180,1.2,1.2,72,0.00,CLR,,0.00,0.0,WeatherDisplay:10.37,2013-09-28 07:23:00,
2013-09-28 01:28:00,41.7,33.0,25.28,South,180,1.2,0.0,71,0.00,CLR,,0.00,0.0,WeatherDisplay:10.37,2013-09-28 07:28:00,
2013-09-28 01:33:00,41.9,33.2,25.28,SE,135,1.2,0.0,71,0.00,CLR,,0.00,0.0,WeatherDisplay:10.37,2013-09-28 07:33:00,
2013-09-28 01:38:00,41.9,32.8,25.28,South,180,1.2,0.0,70,0.00,CLR,,0.00,0.0,WeatherDisplay:10.37,2013-09-28 07:38:00,
2013-09-28 01:43:00,42.1,33.0,25.27,South,180,1.2,0.0,70,0.00,CLR,,0.00,0.0,WeatherDisplay:10.37,2013-09-28 07:43:00,
2013-09-28 01:48:00,42.1,33.0,25.27,South,180,1.2,0.0,70,0.00,CLR,,0.00,0.0,WeatherDisplay:10.37,2013-09-28 07:48:00,
2013-09-28 01:53:00,42.3,32.8,25.28,SE,135,2.3,0.0,69,0.00,CLR,,0.00,0.0,WeatherDisplay:10.37,2013-09-28 07:53:00,
2013-09-28 01:58:00,42.3,32.8,25.28,East,90,0.0,0.0,69,0.00,CLR,,0.00,0.0,WeatherDisplay:10.37,2013-09-28 07:58:00,
2013-09-28 02:03:00,42.4,32.6,25.28,SE,135,2.3,0.0,68,0.00,CLR,,0.00,0.0,WeatherDisplay:10.37,2013-09-28 08:03:00,
2013-09-28 02:08:00,42.4,32.6,25.28,SE,135,2.3,0.0,68,0.00,CLR,,0.00,0.0,WeatherDisplay:10.37,2013-09-28 08:08:00,
2013-09-28 02:13:00,42.4,32.6,25.28,SE,135,2.3,0.0,68,0.00,CLR,,0.00,0.0,WeatherDisplay:10.37,2013-09-28 08:13:00,
2013-09-28 02:18:00,42.4,32.6,25.28,SE,135,2.3,0.0,68,0.00,CLR,,0.00,0.0,WeatherDisplay:10.37,2013-09-28 08:18:00,
2013-09-28 02:23:00,42.4,32.6,25.28,SE,135,2.3,0.0,68,0.00,CLR,,0.00,0.0,WeatherDisplay:10.37,2013-09-28 08:23:00,
2013-09-28 02:28:00,42.4,32.6,25.28,SE,135,2.3,0.0,68,0.00,CLR,,0.00,0.0,WeatherDisplay:10.37,2013-09-28 08:28:00,
2013-09-28 02:33:00,42.4,32.6,25.28,SE,135,2.3,0.0,68,0.00,CLR,,0.00,0.0,WeatherDisplay:10.37,2013-09-28 08:33:00,
2013-09-28 02:38:00,42.4,32.6,25.28,SE,135,2.3,0.0,68,0.00,CLR,,0.00,0.0,WeatherDisplay:10.37,2013-09-28 08:38:00,
2013-09-28 02:43:00,42.4,32.6,25.28,SE,135,2.3,0.0,68,0.00,CLR,,0.00,0.0,WeatherDisplay:10.37,2013-09-28 08:43:00,
2013-09-28 02:48:00,42.4,32.6,25.28,SE,135,2.3,0.0,68,0.00,CLR,,0.00,0.0,WeatherDisplay:10.37,2013-09-28 08:48:00,
2013-09-28 02:53:00,42.4,32.6,25.28,SE,135,2.3,0.0,68,0.00,CLR,,0.00,0.0,WeatherDisplay:10.37,2013-09-28 08:53:00,
2013-09-28 02:58:00,42.4,32.6,25.28,SE,135,2.3,0.0,68,0.00,CLR,,0.00,0.0,WeatherDisplay:10.37,2013-09-28 08:58:00,
2013-09-28 03:03:00,42.4,32.6,25.28,SE,135,2.3,0.0,68,0.00,CLR,,0.00,0.0,WeatherDisplay:10.37,2013-09-28 09:03:00,
2013-09-28 03:08:00,42.4,32.6,25.28,SE,135,2.3,0.0,68,0.00,CLR,,0.00,0.0,WeatherDisplay:10.37,2013-09-28 09:08:00,
2013-09-28 03:13:00,42.4,32.6,25.28,SE,135,2.3,0.0,68,0.00,CLR,,0.00,0.0,WeatherDisplay:10.37,2013-09-28 09:13:00,
2013-09-28 03:18:00,42.4,32.6,25.28,SE,135,2.3,0.0,68,0.00,CLR,,0.00,0.0,WeatherDisplay:10.37,2013-09-28 09:18:00,
2013-09-28 03:23:00,42.4,32.6,25.28,SE,135,2.3,0.0,68,0.00,CLR,,0.00,0.0,WeatherDisplay:10.37,2013-09-28 09:23:00,
2013-09-28 03:28:00,42.4,32.6,25.28,SE,135,2.3,0.0,68,0.00,CLR,,0.00,0.0,WeatherDisplay:10.37,2013-09-28 09:28:00,
2013-09-28 03:33:00,42.4,32.6,25.28,SE,135,2.3,0.0,68,0.00,CLR,,0.00,0.0,WeatherDisplay:10.37,2013-09-28 09:33:00,
2013-09-28 03:38:00,42.4,32.6,25.28,SE,135,2.3,0.0,68,0.00,CLR,,0.00,0.0,WeatherDisplay:10.37,2013-09-28 09:38:00,
2013-09-28 03:43:00,42.4,32.6,25.28,SE,135,2.3,0.0,68,0.00,CLR,,0.00,0.0,WeatherDisplay:10.37,2013-09-28 09:43:00,
2013-09-28 03:48:00,42.4,32.6,25.28,SE,135,2.3,0.0,68,0.00,CLR,,0.00,0.0,WeatherDisplay:10.37,2013-09-28 09:48:00,
2013-09-28 03:53:00,42.4,32.6,25.28,SE,135,2.3,0.0,68,0.00,CLR,,0.00,0.0,WeatherDisplay:10.37,2013-09-28 09:53:00,
2013-09-28 03:58:00,42.4,32.6,25.28,SE,135,2.3,0.0,68,0.00,CLR,,0.00,0.0,WeatherDisplay:10.37,2013-09-28 09:58:00,
2013-09-28 04:03:00,42.4,32.6,25.28,SE,135,2.3,0.0,68,0.00,CLR,,0.00,0.0,WeatherDisplay:10.37,2013-09-28 10:03:00,
2013-09-28 04:08:00,42.4,32.6,25.28,SE,135,2.3,0.0,68,0.00,CLR,,0.00,0.0,WeatherDisplay:10.37,2013-09-28 10:08:00,
2013-09-28 04:14:00,42.4,32.6,25.28,SE,135,2.3,0.0,68,0.00,CLR,,0.00,0.0,WeatherDisplay:10.37,2013-09-28 10:14:00,
2013-09-28 04:19:00,42.4,32.6,25.28,SE,135,2.3,0.0,68,0.00,CLR,,0.00,0.0,WeatherDisplay:10.37,2013-09-28 10:19:00,
2013-09-28 04:24:00,42.4,32.6,25.28,SE,135,2.3,0.0,68,0.00,CLR,,0.00,0.0,WeatherDisplay:10.37,2013-09-28 10:24:00,
2013-09-28 04:29:00,42.4,32.6,25.28,SE,135,2.3,0.0,68,0.00,CLR,,0.00,0.0,WeatherDisplay:10.37,2013-09-28 10:29:00,
2013-09-28 04:34:00,42.4,32.6,25.28,SE,135,2.3,0.0,68,0.00,CLR,,0.00,0.0,WeatherDisplay:10.37,2013-09-28 10:34:00,
2013-09-28 04:39:00,42.4,32.6,25.28,SE,135,2.3,0.0,68,0.00,CLR,,0.00,0.0,WeatherDisplay:10.37,2013-09-28 10:39:00,
2013-09-28 04:44:00,42.4,32.6,25.28,SE,135,2.3,0.0,68,0.00,CLR,,0.00,0.0,WeatherDisplay:10.37,2013-09-28 10:44:00,
2013-09-28 04:49:00,42.4,32.6,25.28,SE,135,2.3,0.0,68,0.00,CLR,,0.00,0.0,WeatherDisplay:10.37,2013-09-28 10:49:00,
2013-09-28 04:54:00,42.4,32.6,25.28,SE,135,2.3,0.0,68,0.00,CLR,,0.00,0.0,WeatherDisplay:10.37,2013-09-28 10:54:00,
2013-09-28 04:59:00,42.4,32.6,25.28,SE,135,2.3,0.0,68,0.00,CLR,,0.00,0.0,WeatherDisplay:10.37,2013-09-28 10:59:00,
2013-09-28 05:04:00,42.4,32.6,25.28,SE,135,2.3,0.0,68,0.00,CLR,,0.00,0.0,WeatherDisplay:10.37,2013-09-28 11:04:00,
2013-09-28 05:09:00,42.4,32.6,25.28,SE,135,2.3,0.0,68,0.00,CLR,,0.00,0.0,WeatherDisplay:10.37,2013-09-28 11:09:00,
2013-09-28 05:14:00,42.4,32.6,25.28,SE,135,2.3,0.0,68,0.00,CLR,,0.00,0.0,WeatherDisplay:10.37,2013-09-28 11:14:00,
2013-09-28 05:19:00,42.4,32.6,25.28,SE,135,2.3,0.0,68,0.00,CLR,,0.00,0.0,WeatherDisplay:10.37,2013-09-28 11:19:00,
2013-09-28 05:24:00,42.4,32.6,25.28,SE,135,2.3,0.0,68,0.00,CLR,,0.00,0.0,WeatherDisplay:10.37,2013-09-28 11:24:00,
2013-09-28 05:29:00,42.4,32.6,25.28,SE,135,2.3,0.0,68,0.00,CLR,,0.00,0.0,WeatherDisplay:10.37,2013-09-28 11:29:00,
2013-09-28 05:34:00,42.4,32.6,25.28,SE,135,2.3,0.0,68,0.00,CLR,,0.00,0.0,WeatherDisplay:10.37,2013-09-28 11:34:00,
2013-09-28 05:39:00,43.0,32.4,25.27,SE,135,3.5,3.5,66,0.00,CLR,,0.00,0.0,WeatherDisplay:10.37,2013-09-28 11:39:00,
2013-09-28 05:44:00,43.0,32.4,25.27,SE,135,2.3,0.0,66,0.00,CLR,,0.00,0.0,WeatherDisplay:10.37,2013-09-28 11:44:00,
2013-09-28 05:49:00,43.0,32.4,25.27,South,180,2.3,0.0,66,0.00,CLR,,0.00,0.0,WeatherDisplay:10.37,2013-09-28 11:49:00,
2013-09-28 05:54:00,43.0,32.4,25.27,SSE,158,2.3,2.3,66,0.00,CLR,,0.00,0.0,WeatherDisplay:10.37,2013-09-28 11:54:00,
2013-09-28 05:59:00,42.8,32.6,25.26,South,180,3.5,3.5,67,0.00,CLR,,0.00,0.0,WeatherDisplay:10.37,2013-09-28 11:59:00,
2013-09-28 06:04:00,42.8,32.6,25.26,South,180,3.5,3.5,67,0.00,CLR,,0.00,0.0,WeatherDisplay:10.37,2013-09-28 12:04:00,
2013-09-28 06:09:00,42.4,32.3,25.26,SE,135,3.5,3.5,67,0.00,CLR,,0.00,0.0,WeatherDisplay:10.37,2013-09-28 12:09:00,
2013-09-28 06:14:00,42.6,32.4,25.26,NE,45,3.5,3.5,67,0.00,CLR,,0.00,0.0,WeatherDisplay:10.37,2013-09-28 12:14:00,
2013-09-28 06:19:00,43.0,32.4,25.26,SE,135,2.3,2.3,66,0.00,CLR,,0.00,0.0,WeatherDisplay:10.37,2013-09-28 12:19:00,
2013-09-28 06:24:00,43.2,32.6,25.26,SE,135,2.3,0.0,66,0.00,CLR,,0.00,0.0,WeatherDisplay:10.37,2013-09-28 12:24:00,
2013-09-28 06:29:00,43.3,32.4,25.27,SE,135,2.3,2.3,65,0.00,CLR,,0.00,0.0,WeatherDisplay:10.37,2013-09-28 12:29:00,
2013-09-28 06:34:00,43.3,32.7,25.26,SW,225,3.5,0.0,66,0.00,CLR,,0.00,0.0,WeatherDisplay:10.37,2013-09-28 12:34:00,
2013-09-28 06:39:00,43.3,32.4,25.27,SE,135,1.2,0.0,65,0.00,CLR,,0.00,0.0,WeatherDisplay:10.37,2013-09-28 12:39:00,
2013-09-28 06:44:00,43.3,32.4,25.27,SE,135,1.2,1.2,65,0.00,CLR,,0.00,0.0,WeatherDisplay:10.37,2013-09-28 12:44:00,
2013-09-28 06:49:00,43.5,32.5,25.27,SE,135,2.3,0.0,65,0.00,CLR,,0.00,0.0,WeatherDisplay:10.37,2013-09-28 12:49:00,
2013-09-28 06:54:00,43.5,32.5,25.27,East,90,2.3,2.3,65,0.00,CLR,,0.00,0.0,WeatherDisplay:10.37,2013-09-28 12:54:00,
2013-09-28 06:59:00,43.7,32.3,25.27,SE,135,3.5,3.5,64,0.00,CLR,,0.00,0.0,WeatherDisplay:10.37,2013-09-28 12:59:00,
2013-09-28 07:04:00,43.9,32.5,25.27,SE,135,1.2,0.0,64,0.00,CLR,,0.00,0.0,WeatherDisplay:10.37,2013-09-28 13:04:00,
2013-09-28 07:09:00,44.2,32.4,25.27,South,180,1.2,0.0,63,0.00,CLR,,0.00,0.0,WeatherDisplay:10.37,2013-09-28 13:09:00,
2013-09-28 07:14:00,44.4,32.6,25.28,NE,45,3.5,3.5,63,0.00,CLR,,0.00,0.0,WeatherDisplay:10.37,2013-09-28 13:14:00,
2013-09-28 07:19:00,44.4,32.6,25.28,SE,135,2.3,0.0,63,0.00,CLR,,0.00,0.0,WeatherDisplay:10.37,2013-09-28 13:19:00,
2013-09-28 07:24:00,44.4,33.0,25.27,SE,135,2.3,2.3,64,0.00,CLR,,0.00,0.0,WeatherDisplay:10.37,2013-09-28 13:24:00,
2013-09-28 07:29:00,44.2,32.8,25.27,South,180,1.2,1.2,64,0.00,CLR,,0.00,0.0,WeatherDisplay:10.37,2013-09-28 13:29:00,
2013-09-28 07:34:00,44.2,32.8,25.27,South,180,1.2,0.0,64,0.00,CLR,,0.00,0.0,WeatherDisplay:10.37,2013-09-28 13:34:00,
2013-09-28 07:39:00,44.2,32.8,25.27,SW,225,1.2,0.0,64,0.00,CLR,,0.00,0.0,WeatherDisplay:10.37,2013-09-28 13:39:00,
2013-09-28 07:44:00,44.2,32.8,25.27,East,90,2.3,2.3,64,0.00,CLR,,0.00,0.0,WeatherDisplay:10.37,2013-09-28 13:44:00,
2013-09-28 07:49:00,44.1,32.3,25.27,South,180,0.0,0.0,63,0.00,CLR,,0.00,0.0,WeatherDisplay:10.37,2013-09-28 13:49:00,
2013-09-28 07:54:00,44.2,32.8,25.27,South,180,0.0,0.0,64,0.00,CLR,,0.00,0.0,WeatherDisplay:10.37,2013-09-28 13:54:00,
2013-09-28 07:59:00,44.2,32.4,25.27,East,90,4.6,4.6,63,0.00,CLR,,0.00,0.0,WeatherDisplay:10.37,2013-09-28 13:59:00,
2013-09-28 08:04:00,44.2,32.4,25.27,SE,135,1.2,0.0,63,0.00,CLR,,0.00,0.0,WeatherDisplay:10.37,2013-09-28 14:04:00,
2013-09-28 08:09:00,44.8,32.9,25.27,South,180,2.3,2.3,63,0.00,CLR,,0.00,0.0,WeatherDisplay:10.37,2013-09-28 14:09:00,
2013-09-28 08:14:00,45.0,33.1,25.27,North,0,0.0,0.0,63,0.00,CLR,,0.00,0.0,WeatherDisplay:10.37,2013-09-28 14:14:00,
2013-09-28 08:19:00,45.0,33.1,25.28,South,180,3.5,3.5,63,0.00,CLR,,0.00,0.0,WeatherDisplay:10.37,2013-09-28 14:19:00,
2013-09-28 08:24:00,45.1,32.9,25.28,NE,45,3.5,3.5,62,0.00,CLR,,0.00,0.0,WeatherDisplay:10.37,2013-09-28 14:24:00,
2013-09-28 08:29:00,45.5,33.2,25.28,SE,135,8.1,8.1,62,0.00,CLR,,0.00,0.0,WeatherDisplay:10.37,2013-09-28 14:29:00,
2013-09-28 08:34:00,45.9,33.6,25.28,East,90,2.3,0.0,62,0.00,CLR,,0.00,0.0,WeatherDisplay:10.37,2013-09-28 14:34:00,
2013-09-28 08:39:00,46.4,33.7,25.28,SE,135,2.3,0.0,61,0.00,CLR,,0.00,0.0,WeatherDisplay:10.37,2013-09-28 14:39:00,
2013-09-28 08:44:00,46.6,33.8,25.27,SE,135,5.8,5.8,61,0.00,CLR,,0.00,0.0,WeatherDisplay:10.37,2013-09-28 14:44:00,
2013-09-28 08:49:00,46.6,33.8,25.27,East,90,2.3,0.0,61,0.00,CLR,,0.00,0.0,WeatherDisplay:10.37,2013-09-28 14:49:00,
2013-09-28 08:54:00,46.6,33.8,25.28,East,90,1.2,1.2,61,0.00,CLR,,0.00,0.0,WeatherDisplay:10.37,2013-09-28 14:54:00,
2013-09-28 08:59:00,46.9,33.8,25.28,West,270,2.3,2.3,60,0.00,CLR,,0.00,0.0,WeatherDisplay:10.37,2013-09-28 14:59:00,
2013-09-28 09:04:00,46.9,33.8,25.28,NW,315,2.3,0.0,60,0.00,OVC,,0.00,0.0,WeatherDisplay:10.37,2013-09-28 15:04:00,
2013-09-28 09:09:00,47.5,33.9,25.28,East,90,8.1,8.1,59,0.00,OVC,,0.00,0.0,WeatherDisplay:10.37,2013-09-28 15:09:00,
2013-09-28 09:14:00,47.7,34.0,25.29,SW,225,3.5,3.5,59,0.00,OVC,,0.00,0.0,WeatherDisplay:10.37,2013-09-28 15:14:00,
2013-09-28 09:19:00,47.8,34.2,25.28,NE,45,2.3,2.3,59,0.00,OVC,,0.00,0.0,WeatherDisplay:10.37,2013-09-28 15:19:00,
2013-09-28 09:24:00,48.0,33.9,25.28,East,90,5.8,5.8,58,0.00,OVC,,0.00,0.0,WeatherDisplay:10.37,2013-09-28 15:24:00,
2013-09-28 09:29:00,48.2,34.1,25.28,SE,135,5.8,5.8,58,0.00,OVC,,0.00,0.0,WeatherDisplay:10.37,2013-09-28 15:29:00,
2013-09-28 09:34:00,48.4,34.3,25.28,NE,45,3.5,3.5,58,0.00,OVC,,0.00,0.0,WeatherDisplay:10.37,2013-09-28 15:34:00,
2013-09-28 09:39:00,48.6,34.4,25.29,South,180,3.5,3.5,58,0.00,OVC,,0.00,0.0,WeatherDisplay:10.37,2013-09-28 15:39:00,
2013-09-28 09:44:00,48.9,34.8,25.28,SE,135,4.6,4.6,58,0.00,OVC,,0.00,0.0,WeatherDisplay:10.37,2013-09-28 15:44:00,
2013-09-28 09:49:00,49.1,34.5,25.27,West,270,3.5,3.5,57,0.00,OVC,,0.00,0.0,WeatherDisplay:10.37,2013-09-28 15:49:00,
2013-09-28 09:54:00,49.3,34.7,25.28,WSW,248,4.6,4.6,57,0.00,OVC,,0.00,0.0,WeatherDisplay:10.37,2013-09-28 15:54:00,
2013-09-28 09:59:00,49.6,34.6,25.28,East,90,3.8,3.8,56,0.00,OVC,,0.00,0.0,WeatherDisplay:10.37,2013-09-28 15:59:00,
2013-09-28 10:04:00,49.6,34.6,25.28,West,270,5.8,5.8,56,0.00,OVC,,0.00,0.0,WeatherDisplay:10.37,2013-09-28 16:04:00,
2013-09-28 10:09:00,50.0,34.0,25.28,South,180,3.5,4.5,54,0.00,OVC,,0.00,0.0,WeatherDisplay:10.37,2013-09-28 16:09:00,
2013-09-28 10:14:00,50.2,34.6,25.28,NE,45,4.6,4.6,55,0.00,OVC,,0.00,0.0,WeatherDisplay:10.37,2013-09-28 16:14:00,
2013-09-28 10:19:00,50.5,35.0,25.28,South,180,3.5,3.5,55,0.00,OVC,,0.00,0.0,WeatherDisplay:10.37,2013-09-28 16:19:00,
2013-09-28 10:24:00,50.7,34.7,25.28,SW,225,10.4,10.4,54,0.00,OVC,,0.00,0.0,WeatherDisplay:10.37,2013-09-28 16:24:00,
2013-09-28 10:29:00,51.1,35.0,25.27,NE,45,8.1,8.1,54,0.00,OVC,,0.00,0.0,WeatherDisplay:10.37,2013-09-28 16:29:00,
2013-09-28 10:34:00,51.3,35.2,25.27,West,270,3.5,5.4,54,0.00,OVC,,0.00,0.0,WeatherDisplay:10.37,2013-09-28 16:34:00,
2013-09-28 10:39:00,51.6,35.5,25.27,North,0,5.8,5.8,54,0.00,OVC,,0.00,0.0,WeatherDisplay:10.37,2013-09-28 16:39:00,
2013-09-28 10:44:00,51.8,34.7,25.27,NE,45,4.6,4.6,52,0.00,OVC,,0.00,0.0,WeatherDisplay:10.37,2013-09-28 16:44:00,
2013-09-28 10:49:00,51.8,35.2,25.27,West,270,5.8,5.8,53,0.00,OVC,,0.00,0.0,WeatherDisplay:10.37,2013-09-28 16:49:00,
2013-09-28 10:54:00,51.6,35.5,25.27,SW,225,3.5,3.5,54,0.00,OVC,,0.00,0.0,WeatherDisplay:10.37,2013-09-28 16:54:00,
2013-09-28 10:59:00,51.6,35.0,25.26,NE,45,8.1,8.1,53,0.00,OVC,,0.00,0.0,WeatherDisplay:10.37,2013-09-28 16:59:00,
2013-09-28 11:04:00,51.6,35.5,25.26,South,180,2.3,0.0,54,0.00,OVC,,0.00,0.0,WeatherDisplay:10.37,2013-09-28 17:04:00,
2013-09-28 11:09:00,51.6,35.5,25.26,South,180,8.1,8.1,54,0.00,OVC,,0.00,0.0,WeatherDisplay:10.37,2013-09-28 17:09:00,
2013-09-28 11:14:00,51.6,35.5,25.26,East,90,2.3,2.3,54,0.00,OVC,,0.00,0.0,WeatherDisplay:10.37,2013-09-28 17:14:00,
2013-09-28 11:19:00,51.6,35.5,25.25,East,90,5.8,5.8,54,0.00,OVC,,0.00,0.0,WeatherDisplay:10.37,2013-09-28 17:19:00,
2013-09-28 11:24:00,51.6,35.5,25.25,South,180,5.8,5.8,54,0.00,OVC,,0.00,0.0,WeatherDisplay:10.37,2013-09-28 17:24:00,
2013-09-28 11:29:00,51.8,35.7,25.26,South,180,3.5,3.5,54,0.00,OVC,,0.00,0.0,WeatherDisplay:10.37,2013-09-28 17:29:00,
2013-09-28 11:34:00,52.0,35.8,25.26,SW,225,1.2,1.2,54,0.00,OVC,,0.00,0.0,WeatherDisplay:10.37,2013-09-28 17:34:00,
2013-09-28 11:39:00,52.3,36.2,25.25,SE,135,2.3,2.3,54,0.00,OVC,,0.00,0.0,WeatherDisplay:10.37,2013-09-28 17:39:00,
2013-09-28 11:44:00,52.5,35.9,25.26,SW,225,5.8,5.8,53,0.00,OVC,,0.00,0.0,WeatherDisplay:10.37,2013-09-28 17:44:00,
2013-09-28 11:49:00,52.7,36.0,25.26,South,180,2.3,2.3,53,0.00,OVC,,0.00,0.0,WeatherDisplay:10.37,2013-09-28 17:49:00,
2013-09-28 11:54:00,52.9,35.7,25.26,ENE,68,5.8,5.8,52,0.00,OVC,,0.00,0.0,WeatherDisplay:10.37,2013-09-28 17:54:00,
2013-09-28 11:59:00,53.1,36.4,25.25,North,0,1.2,0.0,53,0.00,OVC,,0.00,0.0,WeatherDisplay:10.37,2013-09-28 17:59:00,
2013-09-28 12:04:00,53.2,36.5,25.26,West,270,1.2,1.2,53,0.00,OVC,,0.00,0.0,WeatherDisplay:10.37,2013-09-28 18:04:00,
2013-09-28 12:09:00,53.8,37.0,25.25,SSE,158,3.5,3.5,53,0.00,OVC,,0.00,0.0,WeatherDisplay:10.37,2013-09-28 18:09:00,
2013-09-28 12:14:00,54.3,37.1,25.26,East,90,2.3,0.0,52,0.00,OVC,,0.00,0.0,WeatherDisplay:10.37,2013-09-28 18:14:00,
2013-09-28 12:19:00,54.7,37.4,25.26,SE,135,2.3,0.0,52,0.00,OVC,,0.00,0.0,WeatherDisplay:10.37,2013-09-28 18:19:00,
2013-09-28 12:24:00,55.2,36.9,25.26,NE,45,3.5,3.5,50,0.00,OVC,,0.00,0.0,WeatherDisplay:10.37,2013-09-28 18:24:00,
2013-09-28 12:29:00,55.9,37.6,25.25,SE,135,1.2,0.0,50,0.00,OVC,,0.00,0.0,WeatherDisplay:10.37,2013-09-28 18:29:00,
2013-09-28 12:34:00,56.5,37.5,25.25,SE,135,3.5,0.0,49,0.00,OVC,,0.00,0.0,WeatherDisplay:10.37,2013-09-28 18:34:00,
2013-09-28 12:39:00,57.2,38.2,25.25,SE,135,1.2,0.0,49,0.00,OVC,,0.00,0.0,WeatherDisplay:10.37,2013-09-28 18:39:00,
2013-09-28 12:44:00,57.7,37.1,25.26,West,270,3.5,3.5,46,0.00,OVC,,0.00,0.0,WeatherDisplay:10.37,2013-09-28 18:44:00,
2013-09-28 12:49:00,57.7,37.6,25.26,South,180,2.3,0.0,47,0.00,OVC,,0.00,0.0,WeatherDisplay:10.37,2013-09-28 18:49:00,
2013-09-28 12:54:00,57.7,37.6,25.26,North,0,1.2,1.2,47,0.00,OVC,,0.00,0.0,WeatherDisplay:10.37,2013-09-28 18:54:00,
2013-09-28 12:59:00,57.7,37.6,25.25,NW,315,2.3,2.3,47,0.00,OVC,,0.00,0.0,WeatherDisplay:10.37,2013-09-28 18:59:00,
2013-09-28 13:04:00,57.7,37.1,25.26,South,180,2.3,2.3,46,0.00,OVC,,0.00,0.0,WeatherDisplay:10.37,2013-09-28 19:04:00,
2013-09-28 13:10:00,57.6,37.5,25.25,South,180,1.6,1.6,47,0.00,OVC,,0.00,0.0,WeatherDisplay:10.37,2013-09-28 19:10:00,
2013-09-28 13:15:00,57.4,37.3,25.26,South,180,3.5,3.5,47,0.00,OVC,,0.00,0.0,WeatherDisplay:10.37,2013-09-28 19:15:00,
2013-09-28 13:20:00,57.2,37.1,25.25,East,90,8.1,8.1,47,0.00,OVC,,0.00,0.0,WeatherDisplay:10.37,2013-09-28 19:20:00,
2013-09-28 13:25:00,57.0,35.9,25.26,ESE,112,3.5,4.5,45,0.00,OVC,,0.00,0.0,WeatherDisplay:10.37,2013-09-28 19:25:00,
2013-09-28 13:30:00,56.7,36.6,25.25,East,90,4.6,4.6,47,0.00,OVC,,0.00,0.0,WeatherDisplay:10.37,2013-09-28 19:30:00,
2013-09-28 13:35:00,56.7,36.6,25.26,SE,135,6.9,6.9,47,0.00,OVC,,0.00,0.0,WeatherDisplay:10.37,2013-09-28 19:35:00,
2013-09-28 13:40:00,56.5,36.5,25.25,East,90,5.8,5.8,47,0.00,OVC,,0.00,0.0,WeatherDisplay:10.37,2013-09-28 19:40:00,
2013-09-28 13:45:00,56.3,36.8,25.25,ENE,68,5.8,5.8,48,0.00,OVC,,0.00,0.0,WeatherDisplay:10.37,2013-09-28 19:45:00,
2013-09-28 13:50:00,56.1,36.7,25.25,East,90,1.2,1.2,48,0.00,OVC,,0.00,0.0,WeatherDisplay:10.37,2013-09-28 19:50:00,
2013-09-28 13:55:00,56.3,36.8,25.25,SE,135,3.5,3.5,48,0.00,OVC,,0.00,0.0,WeatherDisplay:10.37,2013-09-28 19:55:00,
2013-09-28 14:00:00,56.3,36.8,25.25,East,90,3.5,3.5,48,0.00,OVC,,0.00,0.0,WeatherDisplay:10.37,2013-09-28 20:00:00,
2013-09-28 14:05:00,56.3,36.8,25.25,SE,135,1.2,0.0,48,0.00,OVC,,0.00,0.0,WeatherDisplay:10.37,2013-09-28 20:05:00,
2013-09-28 14:10:00,56.5,37.5,25.25,SE,135,2.3,0.0,49,0.00,OVC,,0.00,0.0,WeatherDisplay:10.37,2013-09-28 20:10:00,
2013-09-28 14:15:00,56.7,37.7,25.25,SE,135,2.3,0.0,49,0.00,OVC,,0.00,0.0,WeatherDisplay:10.37,2013-09-28 20:15:00,
2013-09-28 14:20:00,57.0,37.5,25.24,East,90,1.2,1.2,48,0.00,OVC,,0.00,0.0,WeatherDisplay:10.37,2013-09-28 20:20:00,
2013-09-28 14:25:00,58.1,38.0,25.25,SW,225,4.6,4.6,47,0.00,OVC,,0.00,0.0,WeatherDisplay:10.37,2013-09-28 20:25:00,
2013-09-28 14:30:00,58.6,37.9,25.25,SSE,158,4.6,4.6,46,0.00,OVC,,0.00,0.0,WeatherDisplay:10.37,2013-09-28 20:30:00,
2013-09-28 14:35:00,59.0,37.7,25.24,SE,135,3.5,3.5,45,0.00,OVC,,0.00,0.0,WeatherDisplay:10.37,2013-09-28 20:35:00,
2013-09-28 14:40:00,59.2,38.4,25.24,East,90,2.3,0.0,46,0.00,OVC,,0.00,0.0,WeatherDisplay:10.37,2013-09-28 20:40:00,
2013-09-28 14:45:00,59.4,38.6,25.25,SE,135,4.6,4.6,46,0.00,OVC,,0.00,0.0,WeatherDisplay:10.37,2013-09-28 20:45:00,
2013-09-28 14:50:00,59.4,38.6,25.24,East,90,3.5,3.5,46,0.00,OVC,,0.00,0.0,WeatherDisplay:10.37,2013-09-28 20:50:00,
2013-09-28 14:55:00,59.4,38.6,25.25,East,90,1.2,0.0,46,0.00,OVC,,0.00,0.0,WeatherDisplay:10.37,2013-09-28 20:55:00,
2013-09-28 15:00:00,59.2,37.8,25.25,South,180,8.1,8.1,45,0.00,OVC,,0.00,0.0,WeatherDisplay:10.37,2013-09-28 21:00:00,
2013-09-28 15:05:00,59.2,36.7,25.25,East,90,4.6,4.6,43,0.00,OVC,,0.00,0.0,WeatherDisplay:10.37,2013-09-28 21:05:00,
2013-09-28 15:10:00,59.2,37.8,25.24,SE,135,3.5,3.5,45,0.00,OVC,,0.00,0.0,WeatherDisplay:10.37,2013-09-28 21:10:00,
2013-09-28 15:15:00,59.2,37.8,25.24,South,180,3.1,3.1,45,0.00,OVC,,0.00,0.0,WeatherDisplay:10.37,2013-09-28 21:15:00,
2013-09-28 15:20:00,59.4,38.0,25.24,SE,135,1.2,0.0,45,0.00,OVC,,0.00,0.0,WeatherDisplay:10.37,2013-09-28 21:20:00,
2013-09-28 15:25:00,59.5,38.2,25.24,SE,135,3.5,0.0,45,0.00,OVC,,0.00,0.0,WeatherDisplay:10.37,2013-09-28 21:25:00,
2013-09-28 15:30:00,59.5,37.6,25.23,NE,45,4.6,4.6,44,0.00,OVC,,0.00,0.0,WeatherDisplay:10.37,2013-09-28 21:30:00,
2013-09-28 15:35:00,59.5,38.2,25.24,East,90,6.9,6.9,45,0.00,OVC,,0.00,0.0,WeatherDisplay:10.37,2013-09-28 21:35:00,
2013-09-28 15:40:00,59.5,38.2,25.24,East,90,3.5,3.5,45,0.00,OVC,,0.00,0.0,WeatherDisplay:10.37,2013-09-28 21:40:00,
2013-09-28 15:45:00,59.5,38.2,25.24,SE,135,3.5,3.5,45,0.00,OVC,,0.00,0.0,WeatherDisplay:10.37,2013-09-28 21:45:00,
2013-09-28 15:50:00,59.5,38.2,25.24,SE,135,3.5,3.5,45,0.00,OVC,,0.00,0.0,WeatherDisplay:10.37,2013-09-28 21:50:00,
2013-09-28 15:55:00,59.5,38.2,25.25,South,180,2.3,2.3,45,0.00,OVC,,0.00,0.0,WeatherDisplay:10.37,2013-09-28 21:55:00,
2013-09-28 16:00:00,59.5,38.2,25.24,South,180,3.5,3.5,45,0.00,OVC,,0.00,0.0,WeatherDisplay:10.37,2013-09-28 22:00:00,
2013-09-28 16:05:00,59.5,38.2,25.23,SW,225,3.5,3.5,45,0.00,OVC,,0.00,0.0,WeatherDisplay:10.37,2013-09-28 22:05:00,
2013-09-28 16:10:00,59.4,38.0,25.23,SE,135,3.5,3.5,45,0.00,OVC,,0.00,0.0,WeatherDisplay:10.37,2013-09-28 22:10:00,
2013-09-28 16:15:00,59.4,38.0,25.23,SE,135,3.5,3.5,45,0.00,OVC,,0.00,0.0,WeatherDisplay:10.37,2013-09-28 22:15:00,
2013-09-28 16:20:00,59.2,37.8,25.23,SE,135,3.5,3.5,45,0.00,OVC,,0.00,0.0,WeatherDisplay:10.37,2013-09-28 22:20:00,
2013-09-28 16:25:00,59.0,37.7,25.23,SE,135,2.3,2.3,45,0.00,OVC,,0.00,0.0,WeatherDisplay:10.37,2013-09-28 22:25:00,
2013-09-28 16:30:00,58.8,38.1,25.23,SE,135,2.3,2.3,46,0.00,OVC,,0.00,0.0,WeatherDisplay:10.37,2013-09-28 22:30:00,
2013-09-28 16:35:00,58.6,37.9,25.23,SE,135,2.3,0.0,46,0.00,OVC,,0.00,0.0,WeatherDisplay:10.37,2013-09-28 22:35:00,
2013-09-28 16:40:00,58.5,37.7,25.23,East,90,2.2,2.2,46,0.00,OVC,,0.00,0.0,WeatherDisplay:10.37,2013-09-28 22:40:00,
2013-09-28 16:45:00,58.5,37.7,25.23,SE,135,0.0,0.0,46,0.00,OVC,,0.00,0.0,WeatherDisplay:10.37,2013-09-28 22:45:00,
2013-09-28 16:50:00,58.3,38.1,25.23,SW,225,2.3,0.0,47,0.00,OVC,,0.00,0.0,WeatherDisplay:10.37,2013-09-28 22:50:00,
2013-09-28 16:55:00,58.3,37.6,25.23,SE,135,2.3,2.3,46,0.00,OVC,,0.00,0.0,WeatherDisplay:10.37,2013-09-28 22:55:00,
2013-09-28 17:00:00,58.1,37.4,25.23,SE,135,2.3,2.3,46,0.00,OVC,,0.00,0.0,WeatherDisplay:10.37,2013-09-28 23:00:00,
2013-09-28 17:05:00,58.1,36.9,25.23,South,180,3.5,3.5,45,0.00,OVC,,0.00,0.0,WeatherDisplay:10.37,2013-09-28 23:05:00,
2013-09-28 17:10:00,58.3,37.0,25.23,NE,45,2.3,2.3,45,0.00,OVC,,0.00,0.0,WeatherDisplay:10.37,2013-09-28 23:10:00,
2013-09-28 17:15:00,58.3,37.6,25.23,SE,135,3.5,0.0,46,0.00,OVC,,0.00,0.0,WeatherDisplay:10.37,2013-09-28 23:15:00,
2013-09-28 17:33:00,59.0,37.1,25.23,SSE,158,3.5,3.5,44,0.00,OVC,,0.00,0.0,WeatherDisplay:10.37,2013-09-28 23:33:00,
2013-09-28 17:38:00,59.2,36.1,25.23,SE,135,17.3,17.3,42,0.00,OVC,,0.00,0.0,WeatherDisplay:10.37,2013-09-28 23:38:00,
2013-09-28 17:43:00,59.4,36.8,25.22,SE,135,2.3,0.0,43,0.00,OVC,,0.00,0.0,WeatherDisplay:10.37,2013-09-28 23:43:00,
2013-09-28 17:48:00,59.4,36.8,25.23,North,0,1.2,0.0,43,0.00,OVC,,0.00,0.0,WeatherDisplay:10.37,2013-09-28 23:48:00,
2013-09-28 17:53:00,59.0,36.5,25.22,East,90,3.5,3.5,43,0.00,OVC,,0.00,0.0,WeatherDisplay:10.37,2013-09-28 23:53:00,
2013-09-28 17:58:00,58.8,36.9,25.22,East,90,2.3,2.3,44,0.00,OVC,,0.00,0.0,WeatherDisplay:10.37,2013-09-28 23:58:00,
2013-09-28 18:03:00,58.6,36.8,25.22,South,180,1.2,1.2,44,0.00,CLR,,0.00,0.0,WeatherDisplay:10.37,2013-09-29 00:03:00,
2013-09-28 18:08:00,58.3,36.4,25.22,South,180,1.2,0.0,44,0.00,CLR,,0.00,0.0,WeatherDisplay:10.37,2013-09-29 00:08:00,
2013-09-28 18:13:00,58.1,36.3,25.22,SE,135,0.0,0.0,44,0.00,CLR,,0.00,0.0,WeatherDisplay:10.37,2013-09-29 00:13:00,
2013-09-28 18:18:00,57.7,36.5,25.22,SE,135,3.5,3.5,45,0.00,CLR,,0.00,0.0,WeatherDisplay:10.37,2013-09-29 00:18:00,
2013-09-28 18:23:00,57.6,36.4,25.22,South,180,2.3,2.3,45,0.00,CLR,,0.00,0.0,WeatherDisplay:10.37,2013-09-29 00:23:00,
2013-09-28 18:28:00,57.4,36.2,25.22,NE,45,4.6,4.6,45,0.00,CLR,,0.00,0.0,WeatherDisplay:10.37,2013-09-29 00:28:00,
2013-09-28 18:33:00,57.4,35.6,25.22,SE,135,5.8,5.8,44,0.00,CLR,,0.00,0.0,WeatherDisplay:10.37,2013-09-29 00:33:00,
2013-09-28 18:38:00,57.4,35.6,25.22,SE,135,5.8,5.8,44,0.00,CLR,,0.00,0.0,WeatherDisplay:10.37,2013-09-29 00:38:00,
2013-09-28 18:43:00,57.0,35.9,25.22,SE,135,2.3,2.3,45,0.00,CLR,,0.00,0.0,WeatherDisplay:10.37,2013-09-29 00:43:00,
2013-09-28 18:48:00,56.8,35.7,25.22,South,180,2.3,2.3,45,0.00,CLR,,0.00,0.0,WeatherDisplay:10.37,2013-09-29 00:48:00,
2013-09-28 18:53:00,56.5,35.4,25.20,East,90,1.2,1.6,45,0.00,CLR,,0.00,0.0,WeatherDisplay:10.37,2013-09-29 00:53:00,
2013-09-28 18:58:00,56.3,35.8,25.21,SE,135,2.3,0.0,46,0.00,CLR,,0.00,0.0,WeatherDisplay:10.37,2013-09-29 00:58:00,
2013-09-28 19:03:00,56.3,35.8,25.20,South,180,2.3,0.0,46,0.00,CLR,,0.00,0.0,WeatherDisplay:10.37,2013-09-29 01:03:00,
2013-09-28 19:08:00,55.8,35.3,25.20,SE,135,2.3,0.0,46,0.00,CLR,,0.00,0.0,WeatherDisplay:10.37,2013-09-29 01:08:00,
2013-09-28 19:13:00,55.4,35.5,25.20,South,180,2.3,0.0,47,0.00,CLR,,0.00,0.0,WeatherDisplay:10.37,2013-09-29 01:13:00,
2013-09-28 19:18:00,54.9,35.0,25.20,South,180,2.2,2.2,47,0.00,CLR,,0.00,0.0,WeatherDisplay:10.37,2013-09-29 01:18:00,
2013-09-28 19:23:00,54.3,35.0,25.20,East,90,3.5,3.5,48,0.00,CLR,,0.00,0.0,WeatherDisplay:10.37,2013-09-29 01:23:00,
2013-09-28 19:28:00,54.1,34.9,25.20,SE,135,2.3,2.3,48,0.00,CLR,,0.00,0.0,WeatherDisplay:10.37,2013-09-29 01:28:00,
2013-09-28 19:33:00,54.0,35.7,25.19,East,90,2.3,2.3,50,0.00,CLR,,0.00,0.0,WeatherDisplay:10.37,2013-09-29 01:33:00,
2013-09-28 19:38:00,53.6,34.9,25.20,South,180,1.2,3.8,49,0.00,CLR,,0.00,0.0,WeatherDisplay:10.37,2013-09-29 01:38:00,
2013-09-28 19:43:00,53.8,35.1,25.21,SE,135,3.5,3.5,49,0.00,CLR,,0.00,0.0,WeatherDisplay:10.37,2013-09-29 01:43:00,
2013-09-28 19:48:00,54.1,34.9,25.20,East,90,5.8,0.0,48,0.00,CLR,,0.00,0.0,WeatherDisplay:10.37,2013-09-29 01:48:00,
2013-09-28 19:53:00,54.5,34.7,25.20,SE,135,5.8,5.8,47,0.00,CLR,,0.00,0.0,WeatherDisplay:10.37,2013-09-29 01:53:00,
2013-09-28 19:58:00,54.9,35.0,25.20,SW,225,2.3,2.3,47,0.00,CLR,,0.00,0.0,WeatherDisplay:10.37,2013-09-29 01:58:00,
2013-09-28 20:03:00,54.9,35.0,25.20,SE,135,1.6,0.0,47,0.00,CLR,,0.00,0.0,WeatherDisplay:10.37,2013-09-29 02:03:00,
2013-09-28 20:08:00,54.9,35.0,25.20,SE,135,1.2,1.6,47,0.00,CLR,,0.00,0.0,WeatherDisplay:10.37,2013-09-29 02:08:00,
2013-09-28 20:13:00,54.7,34.8,25.19,South,180,0.0,0.0,47,0.00,CLR,,0.00,0.0,WeatherDisplay:10.37,2013-09-29 02:13:00,
2013-09-28 20:18:00,54.7,34.8,25.19,East,90,0.0,0.0,47,0.00,CLR,,0.00,0.0,WeatherDisplay:10.37,2013-09-29 02:18:00,
2013-09-28 20:23:00,54.3,34.5,25.20,South,180,0.0,0.0,47,0.00,CLR,,0.00,0.0,WeatherDisplay:10.37,2013-09-29 02:23:00,
2013-09-28 20:28:00,54.3,35.5,25.20,SE,135,0.0,0.0,49,0.00,CLR,,0.00,0.0,WeatherDisplay:10.37,2013-09-29 02:28:00,
2013-09-28 20:33:00,53.4,34.7,25.19,SE,135,0.0,0.0,49,0.00,CLR,,0.00,0.0,WeatherDisplay:10.37,2013-09-29 02:33:00,
2013-09-28 20:38:00,52.9,34.7,25.20,SW,225,0.0,0.0,50,0.00,CLR,,0.00,0.0,WeatherDisplay:10.37,2013-09-29 02:38:00,
2013-09-28 20:43:00,52.3,35.2,25.19,South,180,0.0,0.0,52,0.00,CLR,,0.00,0.0,WeatherDisplay:10.37,2013-09-29 02:43:00,
2013-09-28 20:48:00,52.0,35.4,25.20,SE,135,0.0,0.0,53,0.00,CLR,,0.00,0.0,WeatherDisplay:10.37,2013-09-29 02:48:00,
2013-09-28 20:53:00,51.3,35.2,25.19,South,180,2.3,0.0,54,0.00,CLR,,0.00,0.0,WeatherDisplay:10.37,2013-09-29 02:53:00,
2013-09-28 20:58:00,50.9,35.7,25.19,SE,135,3.5,3.5,56,0.00,CLR,,0.00,0.0,WeatherDisplay:10.37,2013-09-29 02:58:00,
2013-09-28 21:03:00,50.7,35.1,25.19,East,90,2.3,2.3,55,0.00,CLR,,0.00,0.0,WeatherDisplay:10.37,2013-09-29 03:03:00,
2013-09-28 21:08:00,50.9,35.3,25.19,South,180,2.3,2.3,55,0.00,CLR,,0.00,0.0,WeatherDisplay:10.37,2013-09-29 03:08:00,
2013-09-28 21:13:00,51.1,35.0,25.18,SE,135,1.2,0.0,54,0.00,CLR,,0.00,0.0,WeatherDisplay:10.37,2013-09-29 03:13:00,
2013-09-28 21:18:00,51.4,35.3,25.18,South,180,3.5,3.5,54,0.00,CLR,,0.00,0.0,WeatherDisplay:10.37,2013-09-29 03:18:00,
2013-09-28 21:23:00,51.6,35.0,25.18,SE,135,3.5,0.0,53,0.00,CLR,,0.00,0.0,WeatherDisplay:10.37,2013-09-29 03:23:00,
2013-09-28 21:28:00,52.0,35.4,25.17,South,180,1.2,1.6,53,0.00,CLR,,0.00,0.0,WeatherDisplay:10.37,2013-09-29 03:28:00,
2013-09-28 21:34:00,52.3,35.2,25.17,SE,135,3.5,0.0,52,0.00,CLR,,0.00,0.0,WeatherDisplay:10.37,2013-09-29 03:34:00,
2013-09-28 21:39:00,52.5,34.9,25.17,SW,225,1.2,0.0,51,0.00,CLR,,0.00,0.0,WeatherDisplay:10.37,2013-09-29 03:39:00,
2013-09-28 21:44:00,52.7,34.6,25.17,ENE,68,3.5,3.5,50,0.00,CLR,,0.00,0.0,WeatherDisplay:10.37,2013-09-29 03:44:00,
2013-09-28 21:49:00,53.2,35.1,25.17,South,180,5.8,0.0,50,0.00,CLR,,0.00,0.0,WeatherDisplay:10.37,2013-09-29 03:49:00,
2013-09-28 21:54:00,53.6,34.9,25.17,South,180,2.3,0.0,49,0.00,CLR,,0.00,0.0,WeatherDisplay:10.37,2013-09-29 03:54:00,
2013-09-28 21:59:00,53.8,34.5,25.17,South,180,2.3,2.3,48,0.00,CLR,,0.00,0.0,WeatherDisplay:10.37,2013-09-29 03:59:00,
2013-09-28 22:01:00,53.8,35.1,25.17,South,180,3.5,3.5,49,0.00,CLR,,0.00,0.0,WeatherDisplay:10.37,2013-09-29 04:01:00,
2013-09-28 22:02:00,53.8,35.1,25.17,South,180,3.5,3.5,49,0.00,CLR,,0.00,0.0,WeatherDisplay:10.37,2013-09-29 04:02:00,
2013-09-28 22:04:00,53.8,35.1,25.17,South,180,3.5,3.5,49,0.00,CLR,,0.00,0.0,WeatherDisplay:10.37,2013-09-29 04:04:00,
2013-09-28 22:05:00,53.8,35.1,25.17,South,180,3.5,3.5,49,0.00,CLR,,0.00,0.0,WeatherDisplay:10.37,2013-09-29 04:05:00,
2013-09-28 22:10:00,53.8,34.5,25.17,SE,135,3.5,3.5,48,0.00,CLR,,0.00,0.0,WeatherDisplay:10.37,2013-09-29 04:10:00,
2013-09-28 22:15:00,53.8,34.5,25.17,North,0,2.3,0.0,48,0.00,CLR,,0.00,0.0,WeatherDisplay:10.37,2013-09-29 04:15:00,
2013-09-28 22:20:00,54.0,34.2,25.17,SW,225,9.2,9.2,47,0.00,CLR,,0.00,0.0,WeatherDisplay:10.37,2013-09-29 04:20:00,
2013-09-28 22:25:00,54.1,34.3,25.17,East,90,3.5,0.0,47,0.00,CLR,,0.00,0.0,WeatherDisplay:10.37,2013-09-29 04:25:00,
2013-09-28 22:30:00,54.1,34.3,25.17,South,180,3.5,3.5,47,0.00,CLR,,0.00,0.0,WeatherDisplay:10.37,2013-09-29 04:30:00,
2013-09-28 22:35:00,54.3,34.5,25.16,NW,315,1.2,0.0,47,0.00,CLR,,0.00,0.0,WeatherDisplay:10.37,2013-09-29 04:35:00,
2013-09-28 22:40:00,54.0,33.6,25.17,SE,135,2.3,2.3,46,0.00,CLR,,0.00,0.0,WeatherDisplay:10.37,2013-09-29 04:40:00,
2013-09-28 22:45:00,54.3,34.0,25.16,South,180,2.3,2.3,46,0.00,CLR,,0.00,0.0,WeatherDisplay:10.37,2013-09-29 04:45:00,
2013-09-28 22:50:00,54.1,33.8,25.17,East,90,2.3,2.3,46,0.00,CLR,,0.00,0.0,WeatherDisplay:10.37,2013-09-29 04:50:00,
2013-09-28 22:55:00,54.3,34.5,25.17,SE,135,2.3,0.0,47,0.00,CLR,,0.00,0.0,WeatherDisplay:10.37,2013-09-29 04:55:00,
2013-09-28 23:00:00,54.1,33.8,25.17,South,180,3.1,3.1,46,0.00,CLR,,0.00,0.0,WeatherDisplay:10.37,2013-09-29 05:00:00,
2013-09-28 23:05:00,54.1,33.8,25.17,South,180,3.5,3.5,46,0.00,CLR,,0.00,0.0,WeatherDisplay:10.37,2013-09-29 05:05:00,
2013-09-28 23:10:00,54.3,34.0,25.17,South,180,3.5,0.0,46,0.00,CLR,,0.00,0.0,WeatherDisplay:10.37,2013-09-29 05:10:00,
2013-09-28 23:15:00,54.3,34.5,25.17,SE,135,4.6,4.6,47,0.00,CLR,,0.00,0.0,WeatherDisplay:10.37,2013-09-29 05:15:00,
2013-09-28 23:20:00,54.5,34.7,25.17,SE,135,3.5,3.5,47,0.00,CLR,,0.00,0.0,WeatherDisplay:10.37,2013-09-29 05:20:00,
2013-09-28 23:25:00,54.3,34.5,25.16,South,180,1.2,0.0,47,0.00,CLR,,0.00,0.0,WeatherDisplay:10.37,2013-09-29 05:25:00,
2013-09-28 23:30:00,54.1,33.8,25.16,SE,135,3.5,3.5,46,0.00,CLR,,0.00,0.0,WeatherDisplay:10.37,2013-09-29 05:30:00,
2013-09-28 23:35:00,54.0,34.2,25.16,South,180,1.2,1.2,47,0.00,CLR,,0.00,0.0,WeatherDisplay:10.37,2013-09-29 05:35:00,
2013-09-28 23:40:00,53.8,34.0,25.16,SW,225,5.8,5.8,47,0.00,CLR,,0.00,0.0,WeatherDisplay:10.37,2013-09-29 05:40:00,
2013-09-28 23:45:00,54.0,33.6,25.15,SE,135,4.6,4.6,46,0.00,CLR,,0.00,0.0,WeatherDisplay:10.37,2013-09-29 05:45:00,
2013-09-28 23:50:00,54.1,33.8,25.15,NE,45,3.5,0.0,46,0.00,CLR,,0.00,0.0,WeatherDisplay:10.37,2013-09-29 05:50:00,
2013-09-28 23:55:00,54.1,33.8,25.14,SE,135,3.5,3.5,46,0.00,CLR,,0.00,0.0,WeatherDisplay:10.37,2013-09-29 05:55:00,